User: anonymous
Location: Plymouth
(43.7570°N, 71.6890°W)
Time: 03:04:58
(UTC-04:00)
Language:

Cosmos 2016 Rocket - Orbit

View from above orbital plane
View from above orbital plane
View from above satellite
View from above satellite

Ground track
Ground track

The orbit data is extracted from the following two-line orbital elements,

1 19922U 89028B   14292.50570584  .00000011  00000-0 -48417-5 0  1008
2 19922 082.9599 067.5527 0037670 088.1198 339.2657 13.77113453283493
Epoch (UTC): 19 October 2014 12:08:12
Eccentricity: 0.0037670
inclination: 82.9599°
perigee height: 946 km
apogee height: 1002 km
right ascension of ascending node: 67.5527°
argument of perigee: 88.1198°
revolutions per day: 13.77113453
mean anomaly at epoch: 339.2657°
orbit number at epoch: 28349

The dashed part of the orbit path shows where the satellite is in the earth's shadow,  

DLR